SQP101 UKBB-UKOO

Flight info

Callsign SQP101
Flight time N/A
Altitude 31000
Route BASOR M856 GOBLI L919 ODSAN
Aircraft B738/M-SDE2E3FGHIRWXY/LB1

Departure

Time N/A
Airport Boryspil International Airport (UKBB)

Arrival

Time 2026-04-24 19:17
Airport Odesa International Airport (UKOO)
Time Latitude Longitude Altitude Speed Heading
2026-04-24 18:54 47.91171 30.61784 27132 ft 469 kts 193°
2026-04-24 18:55 47.84771 30.60151 26277 ft 464 kts 192°
2026-04-24 18:55 47.81595 30.59354 25859 ft 462 kts 192°
2026-04-24 18:55 47.78425 30.58563 25441 ft 460 kts 192°
2026-04-24 18:56 47.75279 30.57779 25027 ft 458 kts 192°
2026-04-24 18:56 47.72139 30.56997 24609 ft 456 kts 192°
2026-04-24 18:56 47.69020 30.56221 24189 ft 454 kts 192°
2026-04-24 18:56 47.65903 30.55445 23768 ft 453 kts 192°
2026-04-24 18:57 47.62797 30.54673 23302 ft 452 kts 192°
2026-04-24 18:57 47.59703 30.53905 22832 ft 450 kts 192°
2026-04-24 18:57 47.56705 30.53162 22398 ft 447 kts 192°
2026-04-24 18:57 47.53649 30.52406 21967 ft 444 kts 192°
2026-04-24 18:58 47.50611 30.51655 21554 ft 441 kts 192°
2026-04-24 18:58 47.47597 30.50910 21138 ft 438 kts 192°
2026-04-24 18:58 47.44604 30.50172 20726 ft 435 kts 193°
2026-04-24 18:58 47.41630 30.49438 20319 ft 432 kts 193°
2026-04-24 18:59 47.38668 30.48709 19905 ft 429 kts 193°
2026-04-24 18:59 47.35735 30.47987 19507 ft 426 kts 193°
2026-04-24 18:59 47.32822 30.47271 19099 ft 424 kts 193°
2026-04-24 18:59 47.29918 30.46558 18697 ft 421 kts 193°
2026-04-24 19:00 47.27032 30.45850 18293 ft 419 kts 193°
2026-04-24 19:00 47.24167 30.45147 17837 ft 416 kts 193°
2026-04-24 19:00 47.21315 30.44449 17397 ft 413 kts 193°
2026-04-24 19:00 47.18490 30.43759 16980 ft 410 kts 193°
2026-04-24 19:01 47.15679 30.43143 16565 ft 408 kts 188°
2026-04-24 19:01 47.12845 30.43070 16195 ft 406 kts 181°
2026-04-24 19:01 47.10035 30.43189 15786 ft 402 kts 181°
2026-04-24 19:01 47.07249 30.43333 15400 ft 399 kts 181°
2026-04-24 19:02 47.05412 30.43428 15133 ft 397 kts 181°
2026-04-24 19:02 47.01768 30.43600 14621 ft 393 kts 181°
2026-04-24 19:02 46.99044 30.43716 14230 ft 390 kts 181°
2026-04-24 19:02 46.96339 30.43823 13846 ft 387 kts 182°
2026-04-24 19:03 46.93652 30.43925 13416 ft 385 kts 182°
2026-04-24 19:03 46.90985 30.44024 13001 ft 381 kts 182°
2026-04-24 19:03 46.88347 30.44121 12590 ft 378 kts 182°
2026-04-24 19:03 46.85725 30.44217 12201 ft 375 kts 182°
2026-04-24 19:04 46.83132 30.44312 11825 ft 371 kts 182°
2026-04-24 19:04 46.80555 30.44407 11440 ft 368 kts 182°
2026-04-24 19:04 46.78005 30.44500 11074 ft 365 kts 182°
2026-04-24 19:04 46.75477 30.44593 10698 ft 362 kts 182°
2026-04-24 19:05 46.72970 30.44684 10379 ft 358 kts 182°
2026-04-24 19:05 46.70515 30.44776 10245 ft 348 kts 182°
2026-04-24 19:05 46.68126 30.44865 10090 ft 339 kts 182°
2026-04-24 19:05 46.65823 30.44949 9967 ft 331 kts 182°
2026-04-24 19:06 46.63563 30.45032 9943 ft 319 kts 183°
2026-04-24 19:06 46.61380 30.45112 9922 ft 308 kts 183°
2026-04-24 19:06 46.59263 30.45189 9824 ft 301 kts 183°
2026-04-24 19:06 46.57188 30.45263 9574 ft 295 kts 183°
2026-04-24 19:07 46.55141 30.45336 9124 ft 294 kts 183°
2026-04-24 19:07 46.53098 30.45518 8683 ft 295 kts 173°
2026-04-24 19:07 46.51772 30.45954 8411 ft 295 kts 167°
2026-04-24 19:07 46.49162 30.47120 7912 ft 291 kts 164°
2026-04-24 19:08 46.47245 30.48025 7519 ft 288 kts 164°
2026-04-24 19:08 46.45347 30.48908 7138 ft 285 kts 164°
2026-04-24 19:08 46.43469 30.49763 6834 ft 280 kts 165°
2026-04-24 19:08 46.41651 30.50577 6560 ft 274 kts 165°
2026-04-24 19:09 46.39837 30.51379 6317 ft 272 kts 165°
2026-04-24 19:09 46.38018 30.52179 6032 ft 274 kts 165°
2026-04-24 19:09 46.36192 30.52977 5778 ft 274 kts 165°
2026-04-24 19:09 46.34364 30.53775 5509 ft 274 kts 165°
2026-04-24 19:10 46.32566 30.54559 5246 ft 267 kts 165°
2026-04-24 19:10 46.30787 30.55333 5005 ft 266 kts 165°
2026-04-24 19:10 46.29010 30.56105 4758 ft 267 kts 165°
2026-04-24 19:10 46.27232 30.56876 4566 ft 265 kts 165°
2026-04-24 19:11 46.25484 30.57633 4436 ft 260 kts 165°
2026-04-24 19:11 46.23817 30.58540 4311 ft 254 kts 147°
2026-04-24 19:11 46.22956 30.59656 4290 ft 250 kts 126°
2026-04-24 19:11 46.22236 30.61931 4016 ft 253 kts 95°
2026-04-24 19:12 46.22300 30.64421 3743 ft 246 kts 73°
2026-04-24 19:12 46.22751 30.66782 3528 ft 241 kts 68°
2026-04-24 19:12 46.23246 30.69064 3256 ft 236 kts 68°
2026-04-24 19:12 46.23739 30.71301 2995 ft 230 kts 64°
2026-04-24 19:13 46.24253 30.72592 2821 ft 220 kts 43°
2026-04-24 19:13 46.25928 30.73941 2521 ft 201 kts
2026-04-24 19:13 46.27282 30.73928 2287 ft 191 kts 345°
2026-04-24 19:13 46.28549 30.73440 2096 ft 185 kts 341°
2026-04-24 19:14 46.29736 30.72919 1997 ft 175 kts 341°
2026-04-24 19:14 46.30871 30.72422 2000 ft 168 kts 341°
2026-04-24 19:14 46.31986 30.71937 2005 ft 167 kts 341°
2026-04-24 19:14 46.33110 30.71449 1898 ft 172 kts 341°
2026-04-24 19:15 46.34248 30.70956 1679 ft 167 kts 341°
2026-04-24 19:15 46.35315 30.70495 1486 ft 152 kts 340°
2026-04-24 19:15 46.36281 30.70076 1275 ft 139 kts 341°
2026-04-24 19:15 46.37186 30.69682 1083 ft 135 kts 341°
2026-04-24 19:16 46.38986 30.68904 700 ft 138 kts 341°
2026-04-24 19:16 46.39905 30.68503 491 ft 136 kts 341°
2026-04-24 19:16 46.40804 30.68114 318 ft 135 kts 342°
2026-04-24 19:17 46.41696 30.67733 179 ft 131 kts 343°
2026-04-24 19:17 46.42489 30.67394 172 ft 103 kts 343°
2026-04-24 19:17 46.43062 30.67147 171 ft 69 kts 343°
2026-04-24 19:17 46.43418 30.66993 174 ft 39 kts 343°
2026-04-24 19:18 46.43613 30.66909 174 ft 27 kts 343°
2026-04-24 19:18 46.43782 30.66836 171 ft 19 kts 343°
2026-04-24 19:18 46.43889 30.66810 171 ft 14 kts 28°
2026-04-24 19:18 46.43925 30.66939 172 ft 14 kts 74°
2026-04-24 19:19 46.43951 30.67068 172 ft 13 kts 73°
2026-04-24 19:19 46.43977 30.67191 173 ft 13 kts 73°
2026-04-24 19:19 46.44004 30.67298 172 ft 11 kts 52°
2026-04-24 19:19 46.44074 30.67310 172 ft 8 kts 349°
2026-04-24 19:20 46.44113 30.67300 172 ft 4 kts 349°
2026-04-24 19:20 46.44142 30.67289 172 ft 4 kts 328°
2026-04-24 19:20 46.44142 30.67245 172 ft 5 kts 260°
2026-04-24 19:20 46.44138 30.67210 170 ft 2 kts 259°
2026-04-24 19:21 46.44136 30.67194 171 ft 1 kts 259°
2026-04-24 19:21 46.44135 30.67188 172 ft 1 kts 259°